Вернуться в каталог

EUROBIRD 4A

EUTELSAT W1

АктивенСвязьGEO
NORAD 26487·PAYLOAD·🇪🇺 EU

Запущен Sep 6, 2000 с Guiana Space Centre

Loading…

TLE

СвежийSource: Space-Track

Эпоха: Sep 14, 2026, 13:26 UTC

1 26487U 00052A   26257.56038564 -.00000049  00000-0  00000-0 0  9997
2 26487  11.5228  45.2135 0007462 269.5000 104.9902  0.98179643 94060

Отслеживайте EUROBIRD 4A в реальном времени с AllMySat

Download on the App Store